sat.trackr.live / text

‹ back to catalog

STARLINK-30807

NORAD 58192 · 2023-167T

PAYLOAD ACTIVE UNKNOWN

§ Identity

Operator
Country
US
Launch date
2023-10-30
Launch site
AFETR
Launch vehicle
Mass (kg)
RCS (m²)

Purposes: comms

External: N2YO · Heavens-Above · Gunter

§ Orbital elements

Epoch: 2026-05-25T04:26:12.673824Z

Period
94.26 min
Inclination
43.0061°
Eccentricity
0.0002238
Mean motion
15.27613540 rev/d
Perigee alt
481.4 km
Apogee alt
484.5 km
Semi-major
6,861.1 km
B*
7.1558e-4
RAAN
71.4267°
Arg perigee
265.6874°
Mean anomaly
94.3722°
Rev number
14,268

§ Raw data

STARLINK-308071 58192U 23167T   26145.18486891  .00019502  00000+0  71558-3 0  99922 58192  43.0061  71.4267 0002238 265.6874  94.3722 15.27613540142683

JSON: /api/v1/satellites/58192 · /tle

For live sub-satellite position, see the globe view (requires WebGL).

§ Visibility from observer

Set your observer location to see the next 7 days of passes ≥ 10°. The values pass through the URL so the page stays shareable.

No JS? Fill the form by hand. The geolocation button needs JavaScript.